Weather History for KORD - July, 2012

Change the Weather History Date:

Wednesday, July 11, 2012

  Actual Average Record
Temperature  
Mean Temperature 76 °F 74 °F  
Max Temperature 87 °F 85 °F 97 °F (1936)
Min Temperature 64 °F 64 °F 50 °F (1968)
Degree Days  
Heating Degree Days 0 0  
Month to date heating degree days 0 0  
Since 1 June heating degree days 14 48  
Since 1 July heating degree days 0 0  
Cooling Degree Days 11 9  
Month to date cooling degree days 205 98  
Year to date cooling degree days 667 317  
Since 1 June cooling degree days 496 263  
Growing Degree Days 26 (Base 50)    
Moisture  
Dew Point 57 °F    
Average Humidity 57    
Maximum Humidity 84    
Minimum Humidity 29    
Precipitation  
Precipitation 0.00 in 0.12 in 1.81 in (1922)
Month to date precipitation 0.28 1.19  
Year to date precipitation 13.39 17.72  
Snow  
Snow 0.00 in 0.00 in 0.00 in ()
Month to date snowfall 0.0 0.0  
Since 1 June snowfall 0.0 0.0  
Since 1 July snowfall 0.0 0.0  
Snow Depth 0.00 in    
Sea Level Pressure  
Sea Level Pressure 30.11 in    
Wind  
Wind Speed 8 mph (ENE)    
Max Wind Speed 16 mph    
Max Gust Speed -    
Visibility 10 miles    
Events      
T = Trace of Precipitation, MM = Missing Value Source: NWS Daily Summary

Daily Weather History Graph

Daily Weather History Graph

Search for Another Location

Airport or City:

Trip Planner

Search our weather history database for the weather conditions in past years. The results will help you decide how hot, cold, wet, or windy it might be!

Date:

Astronomy

Jul. 11, 2012 Rise Set
Actual Time 5:26 AM CDT 8:27 PM CDT
Civil Twilight 4:53 AM CDT 9:01 PM CDT
Nautical Twilight 4:10 AM CDT 9:43 PM CDT
Astronomical Twilight 3:19 AM CDT 10:33 PM CDT
Moon 12:03 AM CDT (7/11) 1:59 PM CDT (7/11)
Length of Visible Light 16h 07m
Length of Day
15h 00m
Last Quarter, 44% of the Moon is Illuminated
Jul 11
Last Quarter
Jul 18
New
Jul 26
First Quarter
Aug 1
Full
Aug 9
Last Quarter

Hourly Weather History & Observations

Time (CDT) Temp. Heat Index Dew Point Humidity Pressure Visibility Wind Dir Wind Speed Gust Speed Precip Events Conditions
12:51 AM 68.0 °F - 60.1 °F 76% 30.12 in 10.0 mi North 5.8 mph - N/A   Partly Cloudy
1:51 AM 66.9 °F - 59.0 °F 76% 30.12 in 10.0 mi North 4.6 mph - N/A   Clear
2:51 AM 64.9 °F - 57.9 °F 78% 30.12 in 10.0 mi NNW 4.6 mph - N/A   Clear
3:51 AM 64.9 °F - 57.9 °F 78% 30.12 in 10.0 mi North 5.8 mph - N/A   Clear
4:51 AM 66.2 °F - 57.2 °F 73% 30.13 in 10.0 mi North 5.8 mph - N/A   Partly Cloudy
5:51 AM 64.0 °F - 59.0 °F 84% 30.14 in 10.0 mi North 5.8 mph - N/A   Partly Cloudy
6:51 AM 68.0 °F - 60.1 °F 76% 30.14 in 10.0 mi North 3.5 mph - N/A   Partly Cloudy
7:51 AM 71.6 °F - 62.6 °F 73% 30.15 in 10.0 mi North 4.6 mph - N/A   Partly Cloudy
8:51 AM 75.9 °F - 62.1 °F 62% 30.14 in 10.0 mi ENE 4.6 mph - N/A   Partly Cloudy
9:51 AM 80.1 °F 80.2 °F 55.9 °F 43% 30.13 in 10.0 mi Variable 3.5 mph - N/A   Partly Cloudy
10:51 AM 84.0 °F - 48.0 °F 28% 30.13 in 10.0 mi SSE 9.2 mph - N/A   Scattered Clouds
11:51 AM 84.2 °F - 48.2 °F 29% 30.14 in 10.0 mi SE 6.9 mph - N/A   Partly Cloudy
12:51 PM 86.0 °F 84.2 °F 54.0 °F 33% 30.12 in 10.0 mi ESE 11.5 mph - N/A   Scattered Clouds
1:51 PM 84.9 °F 83.3 °F 54.0 °F 34% 30.11 in 10.0 mi East 13.8 mph - N/A   Scattered Clouds
2:51 PM 87.1 °F 85.3 °F 55.0 °F 33% 30.09 in 10.0 mi ESE 16.1 mph - N/A   Scattered Clouds
3:51 PM 86.0 °F 84.5 °F 55.0 °F 35% 30.08 in 10.0 mi ESE 13.8 mph - N/A   Scattered Clouds
4:51 PM 86.0 °F 84.7 °F 55.9 °F 36% 30.08 in 10.0 mi East 15.0 mph - N/A   Scattered Clouds
5:51 PM 84.2 °F 83.0 °F 55.4 °F 37% 30.08 in 10.0 mi East 13.8 mph - N/A   Partly Cloudy
6:51 PM 82.0 °F 81.4 °F 55.0 °F 39% 30.07 in 10.0 mi East 12.7 mph - N/A   Partly Cloudy
7:51 PM 80.1 °F 80.2 °F 55.9 °F 43% 30.08 in 10.0 mi East 9.2 mph - N/A   Scattered Clouds
8:51 PM 78.1 °F - 57.0 °F 48% 30.08 in 10.0 mi East 9.2 mph - N/A   Scattered Clouds
9:51 PM 77.0 °F - 59.0 °F 54% 30.09 in 10.0 mi East 4.6 mph - N/A   Scattered Clouds
10:51 PM 75.9 °F - 60.1 °F 58% 30.09 in 10.0 mi ENE 4.6 mph - N/A   Partly Cloudy
11:51 PM 75.0 °F - 61.0 °F 62% 30.09 in 10.0 mi East 4.6 mph - N/A   Clear